Probability
0 0 0 0 0 0 0 0 0 0 0 0 0 0 0 0 0 0 0 0 0 0 0 0 0 0 0 0 0 0 0 0 0 0 0 0 0 0 0 0 0 0 0
0 0 0 0 0 0 0 0 0 0 0 0 0 0 0 0 0 0 0 0 0 0 0 0 0 0 0 0 0 0 0 0 0 0 0 0 0 0 0 0 0 0 0
0 0 0 0 0 0 0 0 0 0 0 0 0 0 0 0 0 0 0 0 0 0 0 0 0 0 0 0 0 0 0 0 0 0 0 0 0 0 0 0 0 0 0
0 0 0 0 0 0 0 0 0 0 0 0 0 0 0 0 0 0 0 0 0 0 0 0 0 0 0 0 0 0 0 0 0 0 0 0 0 0 0 0 0 0 0
0 0 0 0 0 0 0 0 0 0 0 0 0 0 0 0 0 0 0 0 0 0 0 0 0 0 0 0 0 0 0 0 0 0 0 0 0 0 0 0 0 0 0
0 0 0 0 0 0 0 0 0 0 0 0 0 0 0 0 0 0 0 0 0 0 0 0 0 0 0 0 0 0 0 0 0 0 0 0 0 0 0 0 0 0 0
0 0 0 0 0 0 0 0 0 0 0 0 0 0 0 0 0 0 0 0 0 0 0 0 0 0 0 0 0 0 0 0 0 0 0 0 0 0 0 0 0 0 0
0 0 0 0 0 0 0 0 0 0 0 0 0 0 0 0 0 0 0 0 0 0 0 0 0 0 0 0 0 0 0 0 0 0 0 0 0 0 0 0 0 0 0
0 0 0 0 0 0 0 0 0 0 0 0 0 0 0 0 0 0 0 0 0 0 0 0 0 0 0 0 0 0 0 0 0 0 0 0 0 0 0 0 0 0 0
0 0 0 0 0 0 0 0 0 0 0 0 0 0 0 0 0 0 0 0 0 0 0 0 0 0 0 0 0 0 0 0 0 0 0 0 0 0 0 0 0 0 0
0 0 0 0 0 0 0 0 0 0 0 0 0 0 0 0 0 0 0 0 0 0 0 0 0 0 0 0 0 0 0 0 0 0 0 0 0 0 0 0 0 0 0
0 0 0 0 0 0 0 0 0 0 0 0 0 0 0 0 0 0 0 0 0 0 0 0 0 0 0 0 0 0 0 0 0 0 0 0 0 0 0 0 0 0 0
0 0 0 0 0 0 0 0 0 0 0 0 0 0 0 0 0 0 0 0 0 0 0 0 0 0 0 0 0 0 0 0 0 0 0 0 0 0 0 0 0 0 0
0 0 0 0 0 0 0 0 0 0 0 0 0 0 0 0 0 0 0 0 0 0 0 0 0 0 0 0 0 0 0 0 0 0 0 0 0 0 0 0 0 0 0
0 0 0 0 0 0 0 0 0 0 0 0 0 0 0 0 0 0 0 0 0 0 0 0 0 0 0 0 0 0 0 0 0 0 0 0 0 0 0 0 0 0 0
0 0 0 0 0 0 0 0 0 0 0 0 0 0 0 0 0 0 0 0 0 0 0 0 0 0 0 0 0 0 0 0 0 0 0 0 0 0 0 0 0 0 0
0 0 0 0 0 0 0 0 0 0 0 0 0 0 0 0 0 0 0 0 0 0 0 0 0 0 0 0 0 0 0 0 0 0 0 0 0 0 0 0 0 0 0
0 0 0 0 0 0 0 0 0 0 0 0 0 0 0 0 0 0 0 0 0 0 0 0 0 0 0 0 0 0 0 0 0 0 0 0 0 0 0 0 0 0 0
0 0 0 0 0 0 0 0 0 0 0 0 0 0 0 0 0 0 0 0 0 0 0 0 0 0 0 0 0 0 0 0 0 0 0 0 0 0 0 0 0 0 0
0 0 0 0 0 0 0 0 0 0 0 0 0 0 0 0 0 0 0 0 0 0 0 0 0 0 0 0 0 0 0 0 0 0 0 0 0 0 0 0 0 0 0
0 0 0 0 0 0 0 0 0 0 0 0 0 0 0 0 0 0 0 0 0 0 0 0 0 0 0 0 0 0 0 0 0 0 0 0 0 0 0 0 0 0 0
0 0 0 0 0 0 0 0 0 0 0 0 0 0 0 0 0 0 0 0 0 0 0 0 0 0 0 0 0 0 0 0 0 0 0 0 0 0 0 0 0 0 0
0 0 0 0 0 0 0 0 0 0 0 0 0 0 0 0 0 0 0 0 0 0 0 0 0 0 0 0 0 0 0 0 0 0 0 0 0 0 0 0 0 0 0
0 0 0 0 0 0 0 0 0 0 0 0 0 0 0 0 0 0 0 0 0 0 0 0 0 0 0 0 0 0 0 0 0 0 0 0 0 0 0 0 0 0 0
0 0 0 0 0 0 0 0 0 0 0 0 0 0 0 0 0 0 0 0 0 0 0 0 0 0 0 0 0 0 0 0 0 0 0 0 0 0 0 0 0 0 0
0 0 0 0 0 0 0 0 0 0 0 0 0 0 0 0 0 0 0 0 0 0 0 0 0 0 0 0 0 0 0 0 0 0 0 0 0 0 0 0 0 0 0
Wind_Speed
5 5 5 5 6 6 6 7 7 7 8 8 8 8 8 7 6 6 7 8 9 9 9 10 11 9 8 7 7 7 6 6 7 5 5 6 11 11 10 10 10 11 11
4 5 5 5 5 5 6 6 7 7 8 8 8 8 8 8 7 7 8 9 10 10 10 11 12 9 12 9 8 9 8 7 6 6 5 5 8 14 13 12 10 9 8
3 4 4 4 5 5 6 6 7 7 7 7 7 8 8 8 8 8 8 9 10 11 11 12 12 11 13 10 10 10 8 7 6 6 6 4 3 8 11 8 8 6 7
3 4 5 5 5 5 6 6 6 7 7 8 8 8 8 8 9 9 9 9 10 11 11 12 12 13 14 12 11 12 9 9 8 6 5 5 4 7 11 9 8 8 8
4 5 6 6 6 6 6 7 7 7 8 8 9 9 9 8 8 9 9 9 10 12 12 12 13 14 17 15 12 11 11 11 10 9 7 5 7 10 14 11 11 8 7
5 7 7 7 8 8 8 8 8 8 8 8 9 10 11 9 16 21 16 10 10 12 13 13 13 14 15 22 24 21 18 17 16 15 13 11 15 11 11 11 11 9 8
6 8 8 9 10 10 9 9 9 9 9 11 11 11 12 15 23 24 23 14 12 13 14 13 12 12 14 14 19 25 25 29 28 19 19 20 13 14 16 16 16 12 10
8 9 9 10 11 11 11 11 10 9 10 12 13 13 15 19 26 27 26 17 14 15 15 15 16 15 14 15 13 16 18 19 23 21 20 17 10 13 19 18 17 9 3
8 8 8 8 9 10 12 13 11 11 12 13 14 15 16 20 28 30 30 13 14 17 16 16 16 17 22 26 19 18 19 19 25 26 23 18 16 19 20 12 12 11 6
8 9 9 9 10 12 13 14 13 13 15 17 18 17 17 19 29 35 34 14 15 16 15 15 17 20 26 28 20 18 21 19 13 14 19 21 16 17 28 21 17 15 9
10 11 12 11 12 13 14 14 14 16 18 19 21 21 20 22 29 37 37 19 15 16 14 14 14 25 28 29 27 20 24 18 11 14 14 12 11 11 15 17 15 13 14
11 13 12 12 12 12 14 15 15 16 18 19 19 21 18 19 23 28 35 33 29 19 16 14 15 26 28 29 23 24 30 25 12 12 14 15 15 14 10 11 10 6 5
11 12 12 13 11 11 13 15 14 13 14 16 16 17 17 15 17 29 32 34 35 23 16 24 26 30 29 23 26 29 22 15 13 14 15 15 12 10 8 8 8 7 6
11 13 13 13 13 12 11 12 12 13 14 15 16 17 17 16 14 14 14 17 22 21 17 16 24 29 26 22 17 19 15 13 14 14 12 10 8 10 11 11 10 10 8
12 14 14 13 13 12 12 12 15 14 17 19 16 16 18 18 18 28 24 16 14 16 18 13 11 10 11 11 12 12 12 13 14 13 11 11 11 12 11 10 10 10 9
13 13 12 12 12 13 13 14 22 26 31 35 34 32 24 30 37 37 37 37 37 35 26 16 14 12 11 10 10 10 11 13 12 12 12 12 12 12 11 10 10 10 10
12 14 12 13 13 13 14 14 16 19 27 32 33 35 34 35 36 35 35 35 34 32 21 16 14 13 11 9 9 10 10 10 10 10 11 11 12 12 12 12 12 11 10
12 13 13 12 12 13 13 14 15 16 17 16 22 30 32 32 32 32 32 27 17 16 14 14 13 12 10 9 8 8 8 8 9 9 10 11 12 13 14 14 13 13 11
11 10 10 11 11 12 13 13 14 15 15 16 15 18 22 25 27 27 25 13 11 11 11 11 11 11 9 8 8 8 8 8 9 9 10 11 12 12 12 12 12 14 11
9 14 13 11 11 11 12 12 13 14 14 14 14 14 14 14 12 13 11 10 9 9 9 10 9 9 7 7 7 7 8 8 10 9 9 10 10 11 12 13 12 12 10
9 10 12 11 10 11 11 12 12 13 13 13 13 16 24 13 11 12 12 11 10 9 7 5 4 4 5 5 6 7 8 7 8 8 9 9 10 10 10 10 11 10 10
8 8 8 9 9 10 11 11 11 12 12 13 12 14 20 12 10 10 11 11 11 11 9 6 4 4 3 3 5 6 7 8 8 8 9 9 9 10 10 10 10 10 10
7 8 8 8 8 11 11 10 10 11 11 12 12 12 11 10 10 10 10 11 10 11 10 10 9 8 8 7 6 5 6 7 7 9 10 10 10 10 10 11 12 12 11
6 7 8 8 8 8 9 10 10 11 11 11 11 11 11 10 10 11 10 10 10 10 10 10 11 13 13 10 8 7 7 7 7 7 9 10 10 9 9 10 10 12 11
5 6 6 7 7 8 8 9 9 10 10 11 11 11 11 10 10 10 10 10 10 11 13 12 9 10 13 14 11 9 11 12 10 7 7 8 10 10 10 10 9 10 9
5 6 6 6 6 7 7 8 9 10 10 10 10 10 11 11 11 11 10 10 10 10 10 10 12 12 12 10 11 12 13 13 12 11 8 7 9 9 9 8 9 8 8
Wind_Direction
4 355 354 357 356 354 354 351 345 340 338 336 330 325 317 303 275 252 245 244 244 243 238 239 241 236 238 233 228 225 219 199 211 200 185 176 176 184 188 185 187 188 193
344 337 336 343 345 343 341 337 333 331 329 327 325 323 316 309 296 275 260 250 247 246 243 242 244 237 238 231 227 227 224 213 200 190 186 166 185 189 184 185 188 188 186
319 317 317 322 325 321 321 321 321 319 316 315 316 315 311 307 299 286 272 262 253 250 245 244 245 238 242 233 228 228 224 219 213 191 187 176 173 177 175 180 186 189 191
300 301 298 295 295 294 295 297 299 301 301 303 302 299 295 294 291 287 281 273 267 260 252 248 244 240 243 235 232 229 219 216 214 205 186 181 170 171 176 179 190 198 200
295 294 288 286 286 284 283 283 285 286 286 287 290 290 288 284 280 282 279 273 271 269 263 256 251 246 244 238 235 227 216 219 214 213 203 180 183 176 188 184 195 190 203
281 282 284 288 287 284 282 282 284 284 283 284 283 282 282 280 286 288 285 274 270 269 268 263 256 251 248 247 244 235 221 220 219 219 217 209 205 194 182 182 179 172 205
280 281 284 284 283 281 280 279 280 282 283 285 283 279 279 279 285 286 285 280 271 268 266 264 260 252 246 247 249 247 239 232 225 219 224 225 206 192 187 188 191 190 198
276 275 276 277 279 282 281 281 282 284 285 286 287 285 283 280 283 284 285 280 271 265 261 259 259 257 247 243 241 242 242 240 235 229 229 228 212 194 195 196 197 189 80
281 283 288 292 293 294 291 290 291 291 288 285 284 282 280 281 282 284 283 275 269 266 262 257 254 256 255 250 245 243 243 243 244 237 234 226 212 201 190 184 181 179 183
309 315 318 319 316 310 304 302 300 295 290 290 286 284 282 281 282 283 281 272 266 264 261 256 249 249 254 252 245 241 242 240 229 235 236 234 220 207 198 194 189 191 185
329 326 324 326 320 311 306 303 301 296 292 288 286 284 280 278 279 280 278 271 261 261 259 255 251 254 255 254 248 242 243 238 222 224 226 224 216 209 205 201 198 195 191
328 323 317 311 306 303 298 296 294 291 288 285 283 282 278 277 278 278 278 275 270 261 254 252 250 256 258 258 255 246 245 241 229 220 221 221 219 215 207 196 190 195 191
320 310 305 301 296 293 291 293 292 288 285 286 285 285 286 285 286 289 290 288 284 276 264 257 255 256 258 259 257 253 245 234 224 219 219 220 216 206 190 181 166 139 110
308 306 305 303 299 294 290 290 289 288 286 285 285 285 286 285 285 287 286 289 290 288 286 276 269 265 262 255 249 249 237 226 219 219 218 211 195 191 190 186 181 168 150
306 305 304 300 298 296 292 286 287 278 278 284 281 278 281 281 277 279 278 276 277 276 282 279 266 254 249 246 244 235 226 218 216 214 209 201 195 192 190 183 178 173 173
307 306 304 302 299 297 296 294 291 292 293 292 290 288 286 285 289 287 284 281 279 276 275 268 264 254 248 245 241 232 221 216 212 209 204 197 191 187 179 174 175 178 179
298 301 300 298 298 297 298 298 299 299 296 296 295 294 292 291 291 290 287 283 277 272 265 261 259 256 245 238 236 232 222 213 207 204 198 190 182 176 172 172 175 180 182
296 295 294 293 294 295 296 297 297 299 301 299 298 298 299 298 298 296 293 289 278 267 255 254 253 251 241 230 226 223 213 202 200 196 188 180 175 172 172 175 178 181 179
298 295 293 293 295 296 297 297 297 297 298 300 301 304 305 305 303 300 300 289 276 262 252 248 245 240 229 219 212 206 201 195 188 183 179 173 171 170 172 174 176 178 173
297 296 300 299 300 301 303 303 305 305 307 309 312 316 317 315 310 307 306 298 288 273 258 251 241 223 207 200 194 189 185 180 176 173 168 166 165 167 168 168 170 171 170
302 302 303 304 305 306 308 310 311 312 314 316 318 320 331 332 327 328 329 329 324 312 290 265 239 195 180 174 171 166 162 159 158 155 155 156 157 158 159 160 160 159 154
305 306 308 308 310 312 313 314 315 318 320 322 324 327 336 339 335 337 338 340 340 342 347 0 25 39 59 106 131 135 136 136 139 141 143 144 145 146 147 148 149 150 148
307 309 312 312 313 316 319 322 323 325 327 328 330 334 338 341 342 344 344 345 350 357 6 18 30 36 41 48 60 89 117 129 135 140 141 141 142 144 146 147 147 146 145
305 312 316 319 322 325 326 327 329 331 332 334 337 340 344 346 348 351 353 356 1 8 15 24 34 39 46 50 53 61 75 94 109 125 133 138 139 139 139 140 140 141 140
310 314 318 322 326 328 329 331 334 336 338 341 344 346 349 352 356 360 2 5 11 19 24 26 28 35 46 54 58 66 84 94 99 106 114 122 126 127 129 130 130 131 133
316 319 322 325 328 331 333 335 337 339 341 344 346 349 352 356 360 3 6 11 15 20 24 27 30 38 44 54 66 75 82 86 89 94 99 107 112 115 118 119 123 126 131